Location: Arbon
(43.0005°N, 0.7472°E)
Time: 11:44:53
(UTC+00:00)

Cosmos 2298 Rocket - Pass Details

Date: 22 April 2026
Orbit: 772 x 782 km, 74.0° (Epoch: 15 May)

Event Time Altitude Azimuth Distance (km) Brightness Sun altitude
Rises 20:40:09 0° 203° (SSW) 3,241 7.1 -18.9°
Reaches altitude 10° 20:42:31 10° 205° (SSW) 2,319 6.3 -19.2°
Maximum altitude 20:47:47 76° 290° (WNW) 807 4.2 -19.9°
Drops below altitude 10° 20:53:07 10° 17° (NNE) 2,341 6.8 -20.7°
Sets 20:55:31 0° 19° (NNE) 3,275 7.6 -21.0°
